STARLINK-1799, 46699

Orbit data source: Space-Track

STARLINK-1799, 46699 is a payload satellite owned by SpaceX/Seattle (US) in LEO that was launched on Sun, 18 Oct 2020 UTC via an FALCON 9 launch vehicle from the Air Force Eastern Test Range (AFETR). Payload-class satellites include a variety of spacecraft equipped with specific instruments for various scientific and technological missions. These include communications satellites like Starlink; space stations such as the ISS; scientific satellites like the Hubble; Earth observation satellites from companies like Planet Labs, Umbra, and HawkEye 360; GPS; miniature CubeSats for education and research; and military/defense satellites.

Loading next visibility...
Identifier
46699, 2020-073AF
Orbit
LEO
Country
Flag of USUS
Related business
Manufacturer
SpaceX/Seattle
Mission
Operational Commercial Communications
Bus & Motor
STARLINK, Unknown motor
Mass
260 kg wet, ~248 kg dry
Launch date (UTC)
2020-10-18 (5 years ago)
Launch vehicle
FALCON 9
Launch site
Air Force Eastern Test Range (AFETR)
Object type
Payload
Rocket body
Debris
Shape & HBR
Box + 1 Pan, 10.1 m
Radar Cross Section
13.562 m², Large (>1 m²)

Expand to show TLE details & history
Last TLE update: 6 hours ago

TLE from 6 hours ago
0 STARLINK-1799
1 46699U 20073AF  25300.16668980  .01023336  00000-0  38545-1 0  9994
2 46699  53.0563 120.5125 0001174  88.0110 172.6161 15.23757579  5825
Epoch: 2025-10-27T04:00Z
TLE epoch observation values (Epoch: 2025-10-27T04:00:01.998Z)
Latitude
-52.2089°
Longitude
-80.58785°
Altitude
513.43 km
Speed
7.606 km/s
True Right ascension
01h 00m 46s
True Declination
-52° 02' 11"
Sunlit
Object was in full shadow at epoch
Visualization orbit readout
Latitude
Unknown
Longitude
Unknown
Altitude
Unknown
Speed
Unknown
Apparent Right ascension
Unknown
Apparent Declination
Unknown
Sunlit
N/A
Visualization observer readout
Local Sidereal Time
05:16:39
Azimuth
Unknown
Elevation
Unknown
Doppler factor
Unknown
Orbital elements
Apogee altitude
495.598 km
Perigee altitude
493.984 km
Semi-major axis
6,872.928 km
Eccentricity
0.00012
Inclination
53.0563°
RAAN
120.5125°
Arg. of periapsis
88.011°
True anomaly
172.61783°
Mean anomaly
172.6161°
Eccentric anomaly
172.61696°
Mean motion
3.80917 °/min
Orbital period
94.51 mins
BSTAR
0.038545
Loading maneuver chart data...
Computing Atmospheric mass density...

Documentation

Showing up to 5 results
|